Bezoek onze andere website:

Meteotemplate

Home Weather Station

Saratoga


Lokaal brand risico:
CBI


Regionaal brand risico: Meer informatie



Select another period ( hide this area )

Eenheden Periode Custom range Directly to
Metrisch Engels Beide
Dagelijkse Wekelijkse Maandelijkse Jaarlijkse
use both date-selectors for a custom range
previous Dag
With this date

WeatherUnderground graphs for this period ( click here )


Dagelijkse Samenvatting Dinsdag 18 december 2018
Tijd Temp. ( °C ) Dew pt. ( °C ) Wind ( km/h ) van Windvlaag ( km/h ) Luchtdruk ( hPa ) Humid.( % ) Rainrate ( cm )
Hoog9,3 6,0 11,9 ZW ( 172/930 ) 19,3 1023,6 90 0,80
Gemiddeld7,2 4,6 3,4 ZW #51/272 8,1 1017,8 83 1,60
Laag6,3 2,4 -   0,0 1009,0 75 -
Dagelijkse Tabular details for Dinsdag 18 december 2018
Tijd Temp. ( °C ) Dew pt. ( °C ) Wind ( km/h ) van Windvlaag ( km/h ) Luchtdruk ( hPa ) Humid.( % ) Rainrate ( cm )
00:04 6,4 4,7 8,7 Westen 8,0 1023,6 89 -
00:09 6,3 4,6 3,2 WZW 6,4 1023,6 89 -
00:14 6,3 4,6 1,8 Zuiden 9,7 1023,6 89 -
00:19 6,3 4,6   Kalm 11,3 1023,6 89 -
00:24 6,3 4,6 1,8 ZW 9,7 1023,6 89 -
00:29 6,3 4,6 3,2 ZO 8,0 1023,6 89 -
00:34 6,3 4,6 5,0 ZO 11,3 1023,6 89 -
00:39 6,3 4,6   Kalm 6,4 1023,6 89 -
00:44 6,3 4,6 5,0 ZW 6,4 1023,2 89 -
00:49 6,3 4,6 5,0 ZW 4,8 1023,2 89 -
00:54 6,3 4,8 5,0 ZZW 6,4 1023,2 90 -
00:59 6,3 4,6 1,8 ZW 6,4 1023,2 89 -
01:04 6,3 4,8 1,8 Zuiden 4,8 1022,9 90 -
01:09 6,3 4,8 1,8 WZW 4,8 1022,9 90 -
01:14 6,3 4,8 1,8 ZW 6,4 1022,9 90 -
01:19 6,3 4,8   Kalm 6,4 1022,9 90 -
01:24 6,3 4,8 1,8 ZZO 6,4 1022,9 90 -
01:29 6,4 4,9 5,0 ZO 8,0 1022,9 90 -
01:34 6,4 4,9 3,2 ZZO 6,4 1022,9 90 -
01:39 6,4 4,9 6,9 ZW 8,0 1022,9 90 -
01:44 6,4 4,9   Kalm 9,7 1022,9 90 -
01:49 6,4 4,9 1,8 ZZW 8,0 1022,9 90 -
01:54 6,4 4,9 3,2 ZZW 8,0 1022,9 90 -
01:59 6,5 5,0 3,2 WZW 9,7 1022,9 90 -
02:04 6,6 5,1 3,2 ZW 6,4 1022,9 90 -
02:09 6,6 5,1 5,0 Zuiden 6,4 1022,9 90 -
02:14 6,6 5,1 6,9 WZW 8,0 1022,9 90 -
02:19 6,6 5,1 1,8 ZW 4,8 1022,9 90 -
02:24 6,7 5,2 1,8 ZW 8,0 1022,9 90 -
02:29 6,7 5,2 5,0 ZZO 6,4 1022,6 90 -
02:34 6,7 5,2 1,8 ZW 4,8 1022,9 90 -
02:39 6,7 5,2 1,8 ZZW 8,0 1022,9 90 -
02:44 6,7 5,2   Kalm 8,0 1022,6 90 -
02:49 6,8 5,3 1,8 Zuiden 4,8 1022,6 90 -
02:54 6,8 5,3 6,9 ZZW 6,4 1022,6 90 -
02:59 6,8 5,3 3,2 ZW 8,0 1022,6 90 -
03:04 6,8 5,3 5,0 ZO 4,8 1022,6 90 -
03:09 6,8 5,3 1,8 ZW 3,2 1022,6 90 -
03:14 6,8 5,3 1,8 Zuiden 4,8 1022,6 90 -
03:19 6,8 5,3 3,2 ZW 4,8 1022,6 90 -
03:24 6,9 5,4 8,7 OZO 9,7 1022,6 90 -
03:29 6,9 5,4   Kalm 3,2 1022,6 90 -
03:34 6,9 5,2 1,8 ZZW 3,2 1022,6 89 -
03:39 6,8 5,3   Kalm 8,0 1022,6 90 -
03:44 6,8 5,3 1,8 ZW 3,2 1022,6 90 -
03:49 6,8 5,3 3,2 ZW 4,8 1022,6 90 -
03:54 6,8 5,3 1,8 WZW 11,3 1022,2 90 -
03:59 6,8 5,3 3,2 ZW 4,8 1022,2 90 -
04:04 6,9 5,2 3,2 Zuiden 11,3 1022,2 89 -
04:09 6,9 5,2   Kalm 3,2 1022,2 89 -
04:14 6,9 5,2 3,2 ZO 8,0 1022,2 89 -
04:19 6,9 5,2 3,2 ZZO 8,0 1022,2 89 -
04:24 6,9 5,2 3,2 ZZO 6,4 1022,2 89 -
04:29 6,9 5,2 3,2 ZZO 11,3 1022,2 89 -
04:34 6,9 5,2   Kalm 3,2 1022,2 89 -
04:39 6,9 5,2 1,8 ZZW 4,8 1021,9 89 -
04:44 6,9 5,2 1,8 Zuiden 4,8 1021,9 89 -
04:49 7,0 5,3 5,0 ZZO 6,4 1022,2 89 -
04:54 7,0 5,3 1,8 WZW 8,0 1021,9 89 -
04:59 7,0 5,3 3,2 ZW 9,7 1022,2 89 -
05:04 7,1 5,4 1,8 ZZW 8,0 1021,9 89 -
05:09 7,1 5,4 5,0 ZZW 6,4 1021,9 89 -
05:14 7,1 5,4   Kalm 6,4 1021,9 89 -
05:19 7,1 5,4   Kalm 9,7 1021,9 89 -
05:24 7,1 5,4 8,7 ZZW 9,7 1021,9 89 -
05:29 7,1 5,4 3,2 ZW 14,5 1021,9 89 -
05:34 7,1 5,4 3,2 ZW 8,0 1021,9 89 -
05:39 7,1 5,4 3,2 ZW 6,4 1021,9 89 -
05:44 7,1 5,4 1,8 ZW 9,7 1021,9 89 -
05:49 7,1 5,4 6,9 WZW 14,5 1021,9 89 -
05:54 7,1 5,4 6,9 WZW 16,1 1021,6 89 -
05:59 7,2 5,3 1,8 WZW 8,0 1021,9 88 -
06:04 7,2 5,3 3,2 ZW 4,8 1021,9 88 -
06:09 7,2 5,5   Kalm 9,7 1021,6 89 -
06:14 7,2 5,5 3,2 ZZO 6,4 1021,6 89 -
06:19 7,2 5,5 3,2 ZW 4,8 1021,6 89 -
06:24 7,2 5,5   Kalm 4,8 1021,6 89 -
06:29 7,2 5,5 3,2 ZZW 8,0 1021,2 89 -
06:34 7,2 5,5 3,2 ZW 8,0 1021,2 89 -
06:39 7,2 5,5 1,8 Westen 6,4 1021,2 89 -
06:44 7,2 5,5 1,8 ZZW 6,4 1021,2 89 -
06:49 7,2 5,5 5,0 Zuiden 8,0 1021,2 89 -
06:54 7,2 5,5   Kalm 4,8 1020,9 89 -
06:59 7,2 5,5 1,8 Westen 8,0 1020,9 89 -
07:04 7,2 5,5 3,2 ZW 9,7 1020,5 89 -
07:09 7,2 5,3   Kalm 8,0 1020,9 88 -
07:14 7,1 5,4 3,2 ZW 6,4 1021,2 89 -
07:19 7,1 5,4 3,2 ZW 4,8 1021,2 89 -
07:24 7,1 5,2 1,8 ZW 3,2 1021,2 88 -
07:29 7,1 5,2 3,2 Zuiden 8,0 1021,2 88 -
07:34 7,1 5,2 3,2 ZW 6,4 1021,2 88 -
07:39 7,1 5,2 1,8 ZZW 4,8 1021,2 88 -
07:44 7,1 5,2   Kalm 4,8 1020,9 88 -
07:49 7,1 5,2 1,8 WZW 8,0 1021,2 88 -
07:54 7,0 5,1 5,0 Westen 6,4 1021,2 88 -
07:59 7,0 5,1 5,0 ZZW 4,8 1020,9 88 -
08:04 6,9 5,1 1,8 ZZO 3,2 1020,9 88 -
08:09 6,9 5,1 5,0 ZW 11,3 1020,9 88 -
08:14 6,8 5,1   Kalm 4,8 1020,9 89 -
08:19 6,8 5,1 3,2 ZW 3,2 1020,9 89 -
08:24 6,8 5,1 3,2 ZW 6,4 1020,9 89 -
08:29 6,8 5,1   Kalm 4,8 1020,5 89 -
08:34 6,8 5,1 1,8 ZZO 8,0 1020,5 89 -
08:39 6,8 5,1 1,8 ZW 6,4 1020,5 89 -
08:44 6,8 5,1 5,0 ZZW 8,0 1020,5 89 -
08:49 6,8 5,1 3,2 ZO 8,0 1020,5 89 -
08:54 6,8 5,1   Kalm   1020,9 89 -
08:59 6,8 5,1 3,2 Zuiden 4,8 1020,5 89 -
09:04 6,8 5,1   Kalm 3,2 1020,5 89 -
09:09 6,9 5,2 1,8 ZW 16,1 1020,5 89 -
09:14 6,9 5,2   Kalm 3,2 1020,5 89 -
09:19 6,9 5,2 1,8 ZW 11,3 1020,5 89 -
09:24 7,0 5,3 3,2 Zuiden 4,8 1020,5 89 -
09:29 7,1 5,4 3,2 Westen 8,0 1020,5 89 -
09:34 7,1 5,4 5,0 Westen 8,0 1020,5 89 -
09:39 7,1 5,2   Kalm 6,4 1020,5 88 -
09:44 7,1 5,2 1,8 ZZO 8,0 1020,5 88 -
09:49 7,2 5,3 1,8 ZZO 4,8 1020,5 88 -
09:54 7,2 5,3 1,8 ZO 8,0 1020,5 88 -
09:59 7,2 5,3 1,8 WZW 4,8 1020,2 88 -
10:04 7,2 5,2 1,8 NNO 6,4 1020,2 87 -
10:09 7,2 5,2 3,2 Zuiden 9,7 1019,9 87 -
10:14 7,3 5,3 3,2 ZO 11,3 1019,9 87 -
10:19 7,3 5,3 3,2 ZZO 4,8 1019,9 87 -
10:24 7,3 5,3 5,0 ZZW 8,0 1019,9 87 -
10:29 7,3 5,3 6,9 OZO 8,0 1019,9 87 -
10:34 7,3 5,3 8,7 ZZO 16,1 1019,9 87 -
10:39 7,4 5,4 1,8 Oosten 4,8 1019,9 87 -
10:44 7,4 5,4 1,8 ZZW 11,3 1019,9 87 -
10:49 7,5 5,3 1,8 ZZW 4,8 1019,9 86 -
10:54 7,6 5,4 3,2 ZZO 8,0 1019,9 86 -
10:59 7,6 5,4 5,0 ZZO 17,7 1019,5 86 -
11:04 7,7 5,5 5,0 ZO 8,0 1019,5 86 -
11:09 7,7 5,5 1,8 ZO 8,0 1019,5 86 -
11:14 7,7 5,5 1,8 ZZO 6,4 1019,5 86 -
11:19 7,8 5,4 8,7 WZW 14,5 1019,5 85 -
11:24 7,8 5,4   Kalm 4,8 1019,5 85 -
11:29 7,9 5,5 1,8 Zuiden 6,4 1019,2 85 -
11:34 8,0 5,5 5,0 ZZW 11,3 1019,2 84 -
11:39 8,1 5,6 1,8 Zuiden 8,0 1019,2 84 -
11:44 8,1 5,6 10,1 Zuiden 9,7 1019,2 84 -
11:49 8,1 5,6 1,8 ZZO 4,8 1018,8 84 -
11:54 8,1 5,6 1,8 ZW 4,8 1018,8 84 -
11:59 8,1 5,4 1,8 ZZW 8,0 1018,8 83 -
12:04 8,2 5,5 3,2 ZZO 6,4 1018,8 83 -
12:09 8,2 5,5 1,8 ZZO 3,2 1018,8 83 -
12:14 8,3 5,6 3,2 ZW 6,4 1018,5 83 -
12:19 8,3 5,6 3,2 Zuiden 6,4 1018,5 83 -
12:24 8,4 5,7 3,2 ZO 6,4 1018,5 83 -
12:29 8,4 5,7 1,8 ZW 6,4 1018,5 83 -
12:34 8,4 5,7 1,8 ZZW 6,4 1018,2 83 -
12:39 8,6 5,9   Kalm 8,0 1018,2 83 -
12:44 8,6 5,9 3,2 ZW 6,4 1017,8 83 -
12:49 8,6 5,7 6,9 ZO 9,7 1017,8 82 -
12:54 8,7 5,8   Kalm 4,8 1017,5 82 -
12:59 8,7 5,8 6,9 ZZO 11,3 1017,5 82 -
13:04 8,7 5,8 1,8 Oosten 6,4 1017,5 82 -
13:09 8,8 5,9 1,8 Zuiden 9,7 1017,5 82 -
13:14 8,8 5,9 5,0 Zuiden 9,7 1017,2 82 -
13:19 8,9 5,8 3,2 OZO 11,3 1017,2 81 0,80
13:24 8,9 5,6   Kalm 16,1 1016,8 80 0,80
13:29 9,0 5,9 3,2 OZO 11,3 1016,8 81 0,80
13:34 9,0 5,9 5,0 Zuiden 8,0 1016,8 81 0,80
13:39 9,1 6,0 1,8 ZZW 6,4 1016,5 81 -
13:44 9,1 6,0 10,1 ZO 9,7 1016,5 81 -
13:49 9,2 5,9 5,0 OZO 14,5 1016,1 80 -
13:54 9,3 6,0 6,9 ZZO 8,0 1016,1 80 -
13:59 9,3 5,8 3,2 Westen 8,0 1016,1 79 -
14:04 9,3 5,8 6,9 ZW 8,0 1016,1 79 -
14:09 9,3 5,8 6,9 Zuiden 9,7 1016,1 79 -
14:14 9,2 5,9 3,2 ZW 8,0 1015,8 80 -
14:19 9,1 5,8 6,9 Zuiden 6,4 1015,8 80 -
14:24 9,1 5,8 1,8 Noorden 8,0 1015,8 80 -
14:29 9,0 5,6 3,2 ZZW 9,7 1015,8 79 -
14:34 8,9 5,5 6,9 ZO 8,0 1015,5 79 -
14:39 8,9 5,6 3,2 ZO 6,4 1015,5 80 -
14:44 8,8 5,4 11,9 ZZW 14,5 1015,5 79 -
14:49 8,8 5,4 5,0 ZZO 6,4 1015,5 79 -
14:54 8,8 5,4 5,0 NW 9,7 1015,5 79 -
14:59 8,8 5,2 1,8 ZZO 16,1 1015,1 78 -
15:04 8,7 5,3 5,0 ZZO 8,0 1015,1 79 -
15:09 8,7 5,3 6,9 ZZO 9,7 1015,1 79 -
15:14 8,6 5,2 1,8 ZZW 9,7 1015,1 79 -
15:19 8,4 5,0 3,2 ZO 11,3 1015,1 79 -
15:24 8,3 4,9 6,9 ZZO 14,5 1015,1 79 -
15:29 8,2 4,8 5,0 Zuiden 16,1 1015,1 79 -
15:34 8,2 4,8 6,9 ZO 6,4 1015,1 79 -
15:39 8,1 4,7 5,0 Zuiden 11,3 1015,1 79 -
15:44 8,0 4,6 5,0 NO 14,5 1014,8 79 -
15:49 7,9 4,3 6,9 ZZO 14,5 1014,8 78 -
15:54 7,9 4,3 3,2 ZO 11,3 1014,8 78 -
15:59 7,8 4,4 5,0 OZO 6,4 1014,8 79 -
16:04 7,7 4,3   Kalm 3,2 1014,4 79 -
16:09 7,5 4,1 6,9 OZO 8,0 1014,4 79 -
16:14 7,4 4,0 6,9 OZO 11,3 1014,4 79 -
16:19 7,3 3,7 3,2 ONO 8,0 1014,1 78 -
16:24 7,3 3,7 1,8 ZZW 14,5 1014,4 78 -
16:29 7,3 3,7 3,2 ZZO 11,3 1014,1 78 -
16:34 7,2 3,6 1,8 Zuiden 9,7 1014,1 78 -
16:39 7,1 3,5 5,0 ZO 9,7 1014,1 78 -
16:44 7,1 3,3 8,7 ZO 8,0 1014,1 77 -
16:49 7,0 3,4 8,7 Zuiden 11,3 1014,1 78 -
16:54 6,9 3,3 5,0 ZO 8,0 1014,1 78 -
16:59 6,8 3,1 8,7 Zuiden 14,5 1013,8 77 -
17:04 6,8 3,1 5,0 Oosten 8,0 1013,8 77 -
17:09 6,8 3,1 3,2 ZO 8,0 1013,8 77 -
17:14 6,7 3,0 1,8 Zuiden 8,0 1013,8 77 -
17:19 6,6 2,9 1,8 ONO 6,4 1013,8 77 -
17:24 6,6 2,9 6,9 ZZO 9,7 1013,4 77 -
17:29 6,6 2,9 1,8 OZO 4,8 1013,4 77 -
17:34 6,6 2,9   Kalm 9,7 1013,4 77 -
17:39 6,6 2,9 1,8 ZO 4,8 1013,4 77 -
17:44 6,6 2,9 1,8 ZZO 1,6 1013,1 77 -
17:49 6,6 2,9 3,2 ZZO 8,0 1013,1 77 -
17:54 6,6 2,9 5,0 ZO 6,4 1013,1 77 -
17:59 6,5 2,8 5,0 ZZO 8,0 1012,8 77 -
18:04 6,5 2,8 1,8 ZO 8,0 1012,8 77 -
18:09 6,5 2,8 1,8 ZZW 6,4 1012,8 77 -
18:14 6,4 2,7   Kalm 3,2 1012,8 77 -
18:19 6,4 2,7   Kalm 1,6 1012,8 77 -
18:24 6,3 2,6 3,2 ZO 8,0 1012,4 77 -
18:29 6,3 2,6 5,0 OZO 6,4 1012,4 77 -
18:34 6,3 2,6 3,2 ZW 4,8 1012,4 77 -
18:39 6,3 2,6   Kalm 1,6 1012,4 77 -
18:44 6,3 2,6 1,8 Zuiden 4,8 1012,4 77 -
18:49 6,3 2,6 1,8 ZZO 4,8 1012,4 77 -
18:54 6,3 2,4 5,0 ZZO 8,0 1012,4 76 -
18:59 6,3 2,4 3,2 Zuiden 8,0 1012,1 76 -
19:04 6,5 2,4 3,2 ZZO 9,7 1012,1 75 -
19:09 6,6 2,5 3,2 OZO 8,0 1011,7 75 -
19:14 6,6 2,5 6,9 ZW 14,5 1011,7 75 -
19:19 6,7 2,6 8,7 Zuiden 8,0 1011,7 75 -
19:24 6,6 2,5 3,2 ZO 6,4 1011,7 75 -
19:29 6,6 2,5 8,7 ZZW 11,3 1011,7 75 -
19:34 6,7 2,6 1,8 Oosten 8,0 1011,4 75 -
19:39 6,7 2,6   Kalm 8,0 1011,4 75 -
19:44 6,6 2,5 3,2 ZO 4,8 1011,1 75 -
19:49 6,6 2,5 6,9 ZO 8,0 1011,1 75 -
19:54 6,6 2,5 5,0 ZO 14,5 1011,1 75 -
19:59 6,7 2,6 5,0 Zuiden 8,0 1011,1 75 -
20:04 6,7 2,6 6,9 ZO 17,7 1011,1 75 -
20:09 6,8 2,7 1,8 Zuiden 11,3 1011,1 75 -
20:14 6,8 2,7 5,0 ZZO 14,5 1011,1 75 -
20:19 6,8 2,7 3,2 ZZO 9,7 1011,1 75 -
20:24 6,8 2,7 6,9 OZO 9,7 1010,7 75 -
20:29 6,8 2,7 10,1 ZW 9,7 1010,7 75 -
20:34 6,7 2,8 3,2 ZW 8,0 1010,7 76 -
20:39 6,7 2,8 6,9 ZZW 8,0 1010,7 76 -
20:44 6,7 2,8 3,2 ZZO 11,3 1010,7 76 -
20:49 6,7 2,8 1,8 ZO 16,1 1010,4 76 -
20:54 6,7 2,8 3,2 ZO 6,4 1010,4 76 -
20:59 6,7 2,8 10,1 ZO 19,3 1010,4 76 -
21:04 6,8 2,9 1,8 ZW 9,7 1010,4 76 -
21:09 6,8 2,7 5,0 ZW 9,7 1010,4 75 -
21:14 6,9 2,8 3,2 ZO 14,5 1010,4 75 -
21:19 6,9 2,8 3,2 WZW 6,4 1010,0 75 -
21:24 6,9 2,8 3,2 ZO 11,3 1010,4 75 -
21:29 6,9 2,8 3,2 WZW 8,0 1010,4 75 -
21:34 6,8 2,7 3,2 OZO 6,4 1010,4 75 -
21:39 6,9 2,8 6,9 ZZO 11,3 1010,0 75 -
21:44 6,9 2,8   Kalm 8,0 1010,0 75 -
21:49 6,9 2,8 6,9 Zuiden 9,7 1010,0 75 -
21:54 6,9 2,8 1,8 Zuiden 8,0 1010,0 75 -
21:59 6,9 2,8 1,8 ZO 6,4 1010,0 75 -
22:04 6,9 2,8 1,8 ZW 4,8 1009,7 75 -
22:09 6,9 2,8 6,9 ZW 9,7 1009,7 75 -
22:14 6,9 2,8 3,2 Zuiden 9,7 1009,4 75 -
22:19 6,9 2,8 3,2 ZW 6,4 1009,4 75 -
22:24 6,8 2,7 3,2 WZW 16,1 1009,4 75 -
22:29 6,8 2,7 5,0 Zuiden 4,8 1009,0 75 -
22:34 6,9 3,0 6,9 ZW 17,7 1009,0 76 -
22:39 6,8 2,7 1,8 ZZW 4,8 1009,4 75 -
Dagelijkse Samenvatting Dinsdag 18 december 2018
Tijd Temp. ( °C ) Dew pt. ( °C ) Wind ( km/h ) van Windvlaag ( km/h ) Luchtdruk ( hPa ) Humid.( % ) Rainrate ( cm )
Hoog9,3 6,0 11,9 ZW ( 172/930 ) 19,3 1023,6 90 0,80
Gemiddeld7,2 4,6 3,4 ZW #51/272 8,1 1017,8 83 1,60
Laag6,3 2,4 -   0,0 1009,0 75 -
Dagelijkse Tabular details for Dinsdag 18 december 2018
Tijd Temp. ( °C ) Dew pt. ( °C ) Wind ( km/h ) van Windvlaag ( km/h ) Luchtdruk ( hPa ) Humid.( % ) Rainrate ( cm )
00:04 6,4 4,7 8,7 Westen 8,0 1023,6 89 -
00:09 6,3 4,6 3,2 WZW 6,4 1023,6 89 -
00:14 6,3 4,6 1,8 Zuiden 9,7 1023,6 89 -
00:19 6,3 4,6   Kalm 11,3 1023,6 89 -
00:24 6,3 4,6 1,8 ZW 9,7 1023,6 89 -
00:29 6,3 4,6 3,2 ZO 8,0 1023,6 89 -
00:34 6,3 4,6 5,0 ZO 11,3 1023,6 89 -
00:39 6,3 4,6   Kalm 6,4 1023,6 89 -
00:44 6,3 4,6 5,0 ZW 6,4 1023,2 89 -
00:49 6,3 4,6 5,0 ZW 4,8 1023,2 89 -
00:54 6,3 4,8 5,0 ZZW 6,4 1023,2 90 -
00:59 6,3 4,6 1,8 ZW 6,4 1023,2 89 -
01:04 6,3 4,8 1,8 Zuiden 4,8 1022,9 90 -
01:09 6,3 4,8 1,8 WZW 4,8 1022,9 90 -
01:14 6,3 4,8 1,8 ZW 6,4 1022,9 90 -
01:19 6,3 4,8   Kalm 6,4 1022,9 90 -
01:24 6,3 4,8 1,8 ZZO 6,4 1022,9 90 -
01:29 6,4 4,9 5,0 ZO 8,0 1022,9 90 -
01:34 6,4 4,9 3,2 ZZO 6,4 1022,9 90 -
01:39 6,4 4,9 6,9 ZW 8,0 1022,9 90 -
01:44 6,4 4,9   Kalm 9,7 1022,9 90 -
01:49 6,4 4,9 1,8 ZZW 8,0 1022,9 90 -
01:54 6,4 4,9 3,2 ZZW 8,0 1022,9 90 -
01:59 6,5 5,0 3,2 WZW 9,7 1022,9 90 -
02:04 6,6 5,1 3,2 ZW 6,4 1022,9 90 -
02:09 6,6 5,1 5,0 Zuiden 6,4 1022,9 90 -
02:14 6,6 5,1 6,9 WZW 8,0 1022,9 90 -
02:19 6,6 5,1 1,8 ZW 4,8 1022,9 90 -
02:24 6,7 5,2 1,8 ZW 8,0 1022,9 90 -
02:29 6,7 5,2 5,0 ZZO 6,4 1022,6 90 -
02:34 6,7 5,2 1,8 ZW 4,8 1022,9 90 -
02:39 6,7 5,2 1,8 ZZW 8,0 1022,9 90 -
02:44 6,7 5,2   Kalm 8,0 1022,6 90 -
02:49 6,8 5,3 1,8 Zuiden 4,8 1022,6 90 -
02:54 6,8 5,3 6,9 ZZW 6,4 1022,6 90 -
02:59 6,8 5,3 3,2 ZW 8,0 1022,6 90 -
03:04 6,8 5,3 5,0 ZO 4,8 1022,6 90 -
03:09 6,8 5,3 1,8 ZW 3,2 1022,6 90 -
03:14 6,8 5,3 1,8 Zuiden 4,8 1022,6 90 -
03:19 6,8 5,3 3,2 ZW 4,8 1022,6 90 -
03:24 6,9 5,4 8,7 OZO 9,7 1022,6 90 -
03:29 6,9 5,4   Kalm 3,2 1022,6 90 -
03:34 6,9 5,2 1,8 ZZW 3,2 1022,6 89 -
03:39 6,8 5,3   Kalm 8,0 1022,6 90 -
03:44 6,8 5,3 1,8 ZW 3,2 1022,6 90 -
03:49 6,8 5,3 3,2 ZW 4,8 1022,6 90 -
03:54 6,8 5,3 1,8 WZW 11,3 1022,2 90 -
03:59 6,8 5,3 3,2 ZW 4,8 1022,2 90 -
04:04 6,9 5,2 3,2 Zuiden 11,3 1022,2 89 -
04:09 6,9 5,2   Kalm 3,2 1022,2 89 -
04:14 6,9 5,2 3,2 ZO 8,0 1022,2 89 -
04:19 6,9 5,2 3,2 ZZO 8,0 1022,2 89 -
04:24 6,9 5,2 3,2 ZZO 6,4 1022,2 89 -
04:29 6,9 5,2 3,2 ZZO 11,3 1022,2 89 -
04:34 6,9 5,2   Kalm 3,2 1022,2 89 -
04:39 6,9 5,2 1,8 ZZW 4,8 1021,9 89 -
04:44 6,9 5,2 1,8 Zuiden 4,8 1021,9 89 -
04:49 7,0 5,3 5,0 ZZO 6,4 1022,2 89 -
04:54 7,0 5,3 1,8 WZW 8,0 1021,9 89 -
04:59 7,0 5,3 3,2 ZW 9,7 1022,2 89 -
05:04 7,1 5,4 1,8 ZZW 8,0 1021,9 89 -
05:09 7,1 5,4 5,0 ZZW 6,4 1021,9 89 -
05:14 7,1 5,4   Kalm 6,4 1021,9 89 -
05:19 7,1 5,4   Kalm 9,7 1021,9 89 -
05:24 7,1 5,4 8,7 ZZW 9,7 1021,9 89 -
05:29 7,1 5,4 3,2 ZW 14,5 1021,9 89 -
05:34 7,1 5,4 3,2 ZW 8,0 1021,9 89 -
05:39 7,1 5,4 3,2 ZW 6,4 1021,9 89 -
05:44 7,1 5,4 1,8 ZW 9,7 1021,9 89 -
05:49 7,1 5,4 6,9 WZW 14,5 1021,9 89 -
05:54 7,1 5,4 6,9 WZW 16,1 1021,6 89 -
05:59 7,2 5,3 1,8 WZW 8,0 1021,9 88 -
06:04 7,2 5,3 3,2 ZW 4,8 1021,9 88 -
06:09 7,2 5,5   Kalm 9,7 1021,6 89 -
06:14 7,2 5,5 3,2 ZZO 6,4 1021,6 89 -
06:19 7,2 5,5 3,2 ZW 4,8 1021,6 89 -
06:24 7,2 5,5   Kalm 4,8 1021,6 89 -
06:29 7,2 5,5 3,2 ZZW 8,0 1021,2 89 -
06:34 7,2 5,5 3,2 ZW 8,0 1021,2 89 -
06:39 7,2 5,5 1,8 Westen 6,4 1021,2 89 -
06:44 7,2 5,5 1,8 ZZW 6,4 1021,2 89 -
06:49 7,2 5,5 5,0 Zuiden 8,0 1021,2 89 -
06:54 7,2 5,5   Kalm 4,8 1020,9 89 -
06:59 7,2 5,5 1,8 Westen 8,0 1020,9 89 -
07:04 7,2 5,5 3,2 ZW 9,7 1020,5 89 -
07:09 7,2 5,3   Kalm 8,0 1020,9 88 -
07:14 7,1 5,4 3,2 ZW 6,4 1021,2 89 -
07:19 7,1 5,4 3,2 ZW 4,8 1021,2 89 -
07:24 7,1 5,2 1,8 ZW 3,2 1021,2 88 -
07:29 7,1 5,2 3,2 Zuiden 8,0 1021,2 88 -
07:34 7,1 5,2 3,2 ZW 6,4 1021,2 88 -
07:39 7,1 5,2 1,8 ZZW 4,8 1021,2 88 -
07:44 7,1 5,2   Kalm 4,8 1020,9 88 -
07:49 7,1 5,2 1,8 WZW 8,0 1021,2 88 -
07:54 7,0 5,1 5,0 Westen 6,4 1021,2 88 -
07:59 7,0 5,1 5,0 ZZW 4,8 1020,9 88 -
08:04 6,9 5,1 1,8 ZZO 3,2 1020,9 88 -
08:09 6,9 5,1 5,0 ZW 11,3 1020,9 88 -
08:14 6,8 5,1   Kalm 4,8 1020,9 89 -
08:19 6,8 5,1 3,2 ZW 3,2 1020,9 89 -
08:24 6,8 5,1 3,2 ZW 6,4 1020,9 89 -
08:29 6,8 5,1   Kalm 4,8 1020,5 89 -
08:34 6,8 5,1 1,8 ZZO 8,0 1020,5 89 -
08:39 6,8 5,1 1,8 ZW 6,4 1020,5 89 -
08:44 6,8 5,1 5,0 ZZW 8,0 1020,5 89 -
08:49 6,8 5,1 3,2 ZO 8,0 1020,5 89 -
08:54 6,8 5,1   Kalm   1020,9 89 -
08:59 6,8 5,1 3,2 Zuiden 4,8 1020,5 89 -
09:04 6,8 5,1   Kalm 3,2 1020,5 89 -
09:09 6,9 5,2 1,8 ZW 16,1 1020,5 89 -
09:14 6,9 5,2   Kalm 3,2 1020,5 89 -
09:19 6,9 5,2 1,8 ZW 11,3 1020,5 89 -
09:24 7,0 5,3 3,2 Zuiden 4,8 1020,5 89 -
09:29 7,1 5,4 3,2 Westen 8,0 1020,5 89 -
09:34 7,1 5,4 5,0 Westen 8,0 1020,5 89 -
09:39 7,1 5,2   Kalm 6,4 1020,5 88 -
09:44 7,1 5,2 1,8 ZZO 8,0 1020,5 88 -
09:49 7,2 5,3 1,8 ZZO 4,8 1020,5 88 -
09:54 7,2 5,3 1,8 ZO 8,0 1020,5 88 -
09:59 7,2 5,3 1,8 WZW 4,8 1020,2 88 -
10:04 7,2 5,2 1,8 NNO 6,4 1020,2 87 -
10:09 7,2 5,2 3,2 Zuiden 9,7 1019,9 87 -
10:14 7,3 5,3 3,2 ZO 11,3 1019,9 87 -
10:19 7,3 5,3 3,2 ZZO 4,8 1019,9 87 -
10:24 7,3 5,3 5,0 ZZW 8,0 1019,9 87 -
10:29 7,3 5,3 6,9 OZO 8,0 1019,9 87 -
10:34 7,3 5,3 8,7 ZZO 16,1 1019,9 87 -
10:39 7,4 5,4 1,8 Oosten 4,8 1019,9 87 -
10:44 7,4 5,4 1,8 ZZW 11,3 1019,9 87 -
10:49 7,5 5,3 1,8 ZZW 4,8 1019,9 86 -
10:54 7,6 5,4 3,2 ZZO 8,0 1019,9 86 -
10:59 7,6 5,4 5,0 ZZO 17,7 1019,5 86 -
11:04 7,7 5,5 5,0 ZO 8,0 1019,5 86 -
11:09 7,7 5,5 1,8 ZO 8,0 1019,5 86 -
11:14 7,7 5,5 1,8 ZZO 6,4 1019,5 86 -
11:19 7,8 5,4 8,7 WZW 14,5 1019,5 85 -
11:24 7,8 5,4   Kalm 4,8 1019,5 85 -
11:29 7,9 5,5 1,8 Zuiden 6,4 1019,2 85 -
11:34 8,0 5,5 5,0 ZZW 11,3 1019,2 84 -
11:39 8,1 5,6 1,8 Zuiden 8,0 1019,2 84 -
11:44 8,1 5,6 10,1 Zuiden 9,7 1019,2 84 -
11:49 8,1 5,6 1,8 ZZO 4,8 1018,8 84 -
11:54 8,1 5,6 1,8 ZW 4,8 1018,8 84 -
11:59 8,1 5,4 1,8 ZZW 8,0 1018,8 83 -
12:04 8,2 5,5 3,2 ZZO 6,4 1018,8 83 -
12:09 8,2 5,5 1,8 ZZO 3,2 1018,8 83 -
12:14 8,3 5,6 3,2 ZW 6,4 1018,5 83 -
12:19 8,3 5,6 3,2 Zuiden 6,4 1018,5 83 -
12:24 8,4 5,7 3,2 ZO 6,4 1018,5 83 -
12:29 8,4 5,7 1,8 ZW 6,4 1018,5 83 -
12:34 8,4 5,7 1,8 ZZW 6,4 1018,2 83 -
12:39 8,6 5,9   Kalm 8,0 1018,2 83 -
12:44 8,6 5,9 3,2 ZW 6,4 1017,8 83 -
12:49 8,6 5,7 6,9 ZO 9,7 1017,8 82 -
12:54 8,7 5,8   Kalm 4,8 1017,5 82 -
12:59 8,7 5,8 6,9 ZZO 11,3 1017,5 82 -
13:04 8,7 5,8 1,8 Oosten 6,4 1017,5 82 -
13:09 8,8 5,9 1,8 Zuiden 9,7 1017,5 82 -
13:14 8,8 5,9 5,0 Zuiden 9,7 1017,2 82 -
13:19 8,9 5,8 3,2 OZO 11,3 1017,2 81 0,80
13:24 8,9 5,6   Kalm 16,1 1016,8 80 0,80
13:29 9,0 5,9 3,2 OZO 11,3 1016,8 81 0,80
13:34 9,0 5,9 5,0 Zuiden 8,0 1016,8 81 0,80
13:39 9,1 6,0 1,8 ZZW 6,4 1016,5 81 -
13:44 9,1 6,0 10,1 ZO 9,7 1016,5 81 -
13:49 9,2 5,9 5,0 OZO 14,5 1016,1 80 -
13:54 9,3 6,0 6,9 ZZO 8,0 1016,1 80 -
13:59 9,3 5,8 3,2 Westen 8,0 1016,1 79 -
14:04 9,3 5,8 6,9 ZW 8,0 1016,1 79 -
14:09 9,3 5,8 6,9 Zuiden 9,7 1016,1 79 -
14:14 9,2 5,9 3,2 ZW 8,0 1015,8 80 -
14:19 9,1 5,8 6,9 Zuiden 6,4 1015,8 80 -
14:24 9,1 5,8 1,8 Noorden 8,0 1015,8 80 -
14:29 9,0 5,6 3,2 ZZW 9,7 1015,8 79 -
14:34 8,9 5,5 6,9 ZO 8,0 1015,5 79 -
14:39 8,9 5,6 3,2 ZO 6,4 1015,5 80 -
14:44 8,8 5,4 11,9 ZZW 14,5 1015,5 79 -
14:49 8,8 5,4 5,0 ZZO 6,4 1015,5 79 -
14:54 8,8 5,4 5,0 NW 9,7 1015,5 79 -
14:59 8,8 5,2 1,8 ZZO 16,1 1015,1 78 -
15:04 8,7 5,3 5,0 ZZO 8,0 1015,1 79 -
15:09 8,7 5,3 6,9 ZZO 9,7 1015,1 79 -
15:14 8,6 5,2 1,8 ZZW 9,7 1015,1 79 -
15:19 8,4 5,0 3,2 ZO 11,3 1015,1 79 -
15:24 8,3 4,9 6,9 ZZO 14,5 1015,1 79 -
15:29 8,2 4,8 5,0 Zuiden 16,1 1015,1 79 -
15:34 8,2 4,8 6,9 ZO 6,4 1015,1 79 -
15:39 8,1 4,7 5,0 Zuiden 11,3 1015,1 79 -
15:44 8,0 4,6 5,0 NO 14,5 1014,8 79 -
15:49 7,9 4,3 6,9 ZZO 14,5 1014,8 78 -
15:54 7,9 4,3 3,2 ZO 11,3 1014,8 78 -
15:59 7,8 4,4 5,0 OZO 6,4 1014,8 79 -
16:04 7,7 4,3   Kalm 3,2 1014,4 79 -
16:09 7,5 4,1 6,9 OZO 8,0 1014,4 79 -
16:14 7,4 4,0 6,9 OZO 11,3 1014,4 79 -
16:19 7,3 3,7 3,2 ONO 8,0 1014,1 78 -
16:24 7,3 3,7 1,8 ZZW 14,5 1014,4 78 -
16:29 7,3 3,7 3,2 ZZO 11,3 1014,1 78 -
16:34 7,2 3,6 1,8 Zuiden 9,7 1014,1 78 -
16:39 7,1 3,5 5,0 ZO 9,7 1014,1 78 -
16:44 7,1 3,3 8,7 ZO 8,0 1014,1 77 -
16:49 7,0 3,4 8,7 Zuiden 11,3 1014,1 78 -
16:54 6,9 3,3 5,0 ZO 8,0 1014,1 78 -
16:59 6,8 3,1 8,7 Zuiden 14,5 1013,8 77 -
17:04 6,8 3,1 5,0 Oosten 8,0 1013,8 77 -
17:09 6,8 3,1 3,2 ZO 8,0 1013,8 77 -
17:14 6,7 3,0 1,8 Zuiden 8,0 1013,8 77 -
17:19 6,6 2,9 1,8 ONO 6,4 1013,8 77 -
17:24 6,6 2,9 6,9 ZZO 9,7 1013,4 77 -
17:29 6,6 2,9 1,8 OZO 4,8 1013,4 77 -
17:34 6,6 2,9   Kalm 9,7 1013,4 77 -
17:39 6,6 2,9 1,8 ZO 4,8 1013,4 77 -
17:44 6,6 2,9 1,8 ZZO 1,6 1013,1 77 -
17:49 6,6 2,9 3,2 ZZO 8,0 1013,1 77 -
17:54 6,6 2,9 5,0 ZO 6,4 1013,1 77 -
17:59 6,5 2,8 5,0 ZZO 8,0 1012,8 77 -
18:04 6,5 2,8 1,8 ZO 8,0 1012,8 77 -
18:09 6,5 2,8 1,8 ZZW 6,4 1012,8 77 -
18:14 6,4 2,7   Kalm 3,2 1012,8 77 -
18:19 6,4 2,7   Kalm 1,6 1012,8 77 -
18:24 6,3 2,6 3,2 ZO 8,0 1012,4 77 -
18:29 6,3 2,6 5,0 OZO 6,4 1012,4 77 -
18:34 6,3 2,6 3,2 ZW 4,8 1012,4 77 -
18:39 6,3 2,6   Kalm 1,6 1012,4 77 -
18:44 6,3 2,6 1,8 Zuiden 4,8 1012,4 77 -
18:49 6,3 2,6 1,8 ZZO 4,8 1012,4 77 -
18:54 6,3 2,4 5,0 ZZO 8,0 1012,4 76 -
18:59 6,3 2,4 3,2 Zuiden 8,0 1012,1 76 -
19:04 6,5 2,4 3,2 ZZO 9,7 1012,1 75 -
19:09 6,6 2,5 3,2 OZO 8,0 1011,7 75 -
19:14 6,6 2,5 6,9 ZW 14,5 1011,7 75 -
19:19 6,7 2,6 8,7 Zuiden 8,0 1011,7 75 -
19:24 6,6 2,5 3,2 ZO 6,4 1011,7 75 -
19:29 6,6 2,5 8,7 ZZW 11,3 1011,7 75 -
19:34 6,7 2,6 1,8 Oosten 8,0 1011,4 75 -
19:39 6,7 2,6   Kalm 8,0 1011,4 75 -
19:44 6,6 2,5 3,2 ZO 4,8 1011,1 75 -
19:49 6,6 2,5 6,9 ZO 8,0 1011,1 75 -
19:54 6,6 2,5 5,0 ZO 14,5 1011,1 75 -
19:59 6,7 2,6 5,0 Zuiden 8,0 1011,1 75 -
20:04 6,7 2,6 6,9 ZO 17,7 1011,1 75 -
20:09 6,8 2,7 1,8 Zuiden 11,3 1011,1 75 -
20:14 6,8 2,7 5,0 ZZO 14,5 1011,1 75 -
20:19 6,8 2,7 3,2 ZZO 9,7 1011,1 75 -
20:24 6,8 2,7 6,9 OZO 9,7 1010,7 75 -
20:29 6,8 2,7 10,1 ZW 9,7 1010,7 75 -
20:34 6,7 2,8 3,2 ZW 8,0 1010,7 76 -
20:39 6,7 2,8 6,9 ZZW 8,0 1010,7 76 -
20:44 6,7 2,8 3,2 ZZO 11,3 1010,7 76 -
20:49 6,7 2,8 1,8 ZO 16,1 1010,4 76 -
20:54 6,7 2,8 3,2 ZO 6,4 1010,4 76 -
20:59 6,7 2,8 10,1 ZO 19,3 1010,4 76 -
21:04 6,8 2,9 1,8 ZW 9,7 1010,4 76 -
21:09 6,8 2,7 5,0 ZW 9,7 1010,4 75 -
21:14 6,9 2,8 3,2 ZO 14,5 1010,4 75 -
21:19 6,9 2,8 3,2 WZW 6,4 1010,0 75 -
21:24 6,9 2,8 3,2 ZO 11,3 1010,4 75 -
21:29 6,9 2,8 3,2 WZW 8,0 1010,4 75 -
21:34 6,8 2,7 3,2 OZO 6,4 1010,4 75 -
21:39 6,9 2,8 6,9 ZZO 11,3 1010,0 75 -
21:44 6,9 2,8   Kalm 8,0 1010,0 75 -
21:49 6,9 2,8 6,9 Zuiden 9,7 1010,0 75 -
21:54 6,9 2,8 1,8 Zuiden 8,0 1010,0 75 -
21:59 6,9 2,8 1,8 ZO 6,4 1010,0 75 -
22:04 6,9 2,8 1,8 ZW 4,8 1009,7 75 -
22:09 6,9 2,8 6,9 ZW 9,7 1009,7 75 -
22:14 6,9 2,8 3,2 Zuiden 9,7 1009,4 75 -
22:19 6,9 2,8 3,2 ZW 6,4 1009,4 75 -
22:24 6,8 2,7 3,2 WZW 16,1 1009,4 75 -
22:29 6,8 2,7 5,0 Zuiden 4,8 1009,0 75 -
22:34 6,9 3,0 6,9 ZW 17,7 1009,0 76 -
22:39 6,8 2,7 1,8 ZZW 4,8 1009,4 75 -

Download your copy of this data-set  here

Our weather-data as stored at Weather Underground. Script ontwikkeld door Jim McMurry. Aangepast voor de template door Leuven-Template.eu

U vindt ons ook hier:

Het Weer Aktueel

UK Metoffice

European Weather Network

WeatherCloud

Weather Underground

Benelux Weer Netwerk

AWEKAS

Citizen Weather Observer Program (CWOP)

Apparatuur in gebruik:

Weerstation
Davis VP2

Weerprogramma
Meteobridge

Weercomputer
TP-Link MR3020

Davis VP2

Meteobridge

TP-Link MR3020